| time (UTC) | temp F | wind direction | speed MPH | gust MPH | rain 1hr in | rain 24hr in | rain mn in | humidity % | barometer mb |
| 20260503190541 | 59 | 192 | 2.0 | 6.0 | 0.00 | 0.01 | 0.01 | 80 | 987.9 |
| 20260503190046 | 59 | 192 | 3.0 | 6.0 | 0.00 | 0.01 | 0.01 | 79 | 987.9 |
| 20260503185542 | 59 | 196 | 3.0 | 6.0 | 0.00 | 0.01 | 0.01 | 79 | 987.8 |
| 20260503185041 | 59 | 196 | 3.0 | 6.0 | 0.00 | 0.01 | 0.01 | 80 | 987.9 |
| 20260503184543 | 59 | 194 | 2.0 | 8.0 | 0.00 | 0.01 | 0.01 | 80 | 987.9 |
| 20260503184041 | 59 | 190 | 4.0 | 8.0 | 0.00 | 0.01 | 0.01 | 80 | 988.0 |
| 20260503183541 | 59 | 159 | 1.0 | 5.0 | 0.00 | 0.01 | 0.01 | 78 | 987.9 |
| 20260503183043 | 60 | 159 | 0.0 | 4.0 | 0.00 | 0.01 | 0.01 | 78 | 988.0 |
| 20260503182539 | 60 | 178 | 1.0 | 4.0 | 0.00 | 0.01 | 0.01 | 78 | 988.0 |
| 20260503182038 | 59 | 121 | 0.0 | 3.0 | 0.00 | 0.01 | 0.01 | 80 | 988.0 |
| 20260503181555 | 59 | 121 | 0.0 | 3.0 | 0.00 | 0.01 | 0.01 | 79 | 988.1 |
| 20260503181040 | 59 | 121 | 1.0 | 3.0 | 0.00 | 0.01 | 0.01 | 80 | 988.1 |
| 20260503180537 | 59 | 121 | 2.0 | 6.0 | 0.00 | 0.01 | 0.01 | 80 | 988.0 |
| 20260503180046 | 59 | 118 | 2.0 | 4.0 | 0.00 | 0.01 | 0.01 | 80 | 988.0 |
| 20260503175536 | 59 | 115 | 0.0 | 3.0 | 0.00 | 0.01 | 0.01 | 80 | 988.0 |
| 20260503175035 | 58 | 115 | 1.0 | 3.0 | 0.00 | 0.01 | 0.01 | 80 | 988.0 |
| 20260503174535 | 58 | 115 | 1.0 | 3.0 | 0.00 | 0.01 | 0.01 | 81 | 988.1 |
| 20260503174035 | 58 | 115 | 1.0 | 3.0 | 0.00 | 0.01 | 0.01 | 80 | 988.1 |
| 20260503173535 | 58 | 115 | 0.0 | 3.0 | 0.00 | 0.01 | 0.01 | 80 | 988.1 |
| 20260503173035 | 58 | 115 | 1.0 | 4.0 | 0.00 | 0.01 | 0.01 | 80 | 988.0 |
| 20260503172536 | 59 | 115 | 2.0 | 4.0 | 0.00 | 0.01 | 0.01 | 80 | 988.0 |
| 20260503172034 | 59 | 112 | 0.0 | 4.0 | 0.00 | 0.01 | 0.01 | 80 | 988.1 |
| 20260503171534 | 59 | 112 | 1.0 | 4.0 | 0.00 | 0.01 | 0.01 | 81 | 988.1 |
| 20260503171034 | 59 | 109 | 1.0 | 4.0 | 0.00 | 0.01 | 0.01 | 82 | 988.0 |
| 20260503170533 | 58 | 105 | 2.0 | 4.0 | 0.00 | 0.01 | 0.01 | 83 | 988.0 |
| 20260503151009 | 54 | 144 | 0.0 | 3.0 | 0.00 | 0.03 | 0.01 | 94 | 987.2 |
| 20260503150510 | 54 | 144 | 1.0 | 3.0 | 0.00 | 0.03 | 0.01 | 95 | 987.2 |
| 20260503131056 | 54 | 182 | 0.0 | 0.0 | 0.00 | 0.03 | 0.01 | 96 | 985.8 |
| 20260503130556 | 54 | 182 | 0.0 | 0.0 | 0.00 | 0.03 | 0.01 | 96 | 985.9 |
| 20260503120104 | 54 | 182 | 0.0 | 0.0 | 0.01 | 0.03 | 0.01 | 95 | 985.8 |
| 20260503110549 | 54 | 182 | 0.0 | 1.0 | 0.00 | 0.02 | 0.00 | 96 | 986.3 |
| 20260503081536 | 56 | 181 | 0.0 | 2.0 | 0.00 | 0.02 | 0.00 | 95 | 986.6 |
| 20260503081037 | 56 | 181 | 0.0 | 2.0 | 0.00 | 0.02 | 0.00 | 94 | 986.6 |
| 20260503080538 | 56 | 181 | 0.0 | 3.0 | 0.00 | 0.02 | 0.00 | 94 | 986.7 |
| 20260503072531 | 56 | 181 | 1.0 | 4.0 | 0.00 | 0.02 | 0.00 | 94 | 986.5 |
| 20260503072031 | 56 | 181 | 0.0 | 3.0 | 0.00 | 0.02 | 0.00 | 94 | 986.5 |
| 20260503071530 | 56 | 181 | 1.0 | 4.0 | 0.00 | 0.02 | 0.00 | 94 | 986.5 |
| 20260503071029 | 56 | 181 | 1.0 | 4.0 | 0.00 | 0.02 | 0.00 | 94 | 986.5 |
| 20260503070532 | 56 | 181 | 1.0 | 5.0 | 0.00 | 0.02 | 0.00 | 94 | 986.4 |
| 20260503055024 | 56 | 180 | 2.0 | 5.0 | 0.00 | 0.02 | 0.02 | 93 | 986.1 |
| 20260503054534 | 56 | 180 | 2.0 | 5.0 | 0.00 | 0.02 | 0.02 | 92 | 985.9 |
| 20260503054024 | 56 | 180 | 3.0 | 6.0 | 0.00 | 0.02 | 0.02 | 92 | 986.0 |
| 20260503053524 | 56 | 181 | 3.0 | 6.0 | 0.00 | 0.02 | 0.02 | 92 | 986.0 |
| 20260503053024 | 56 | 206 | 2.0 | 5.0 | 0.00 | 0.02 | 0.02 | 92 | 986.1 |
| 20260503052525 | 56 | 204 | 3.0 | 5.0 | 0.00 | 0.02 | 0.02 | 92 | 986.1 |
| 20260503052025 | 56 | 213 | 2.0 | 6.0 | 0.00 | 0.02 | 0.02 | 92 | 985.9 |
| 20260503051524 | 56 | 217 | 3.0 | 7.0 | 0.00 | 0.02 | 0.02 | 93 | 985.9 |
| 20260503051024 | 56 | 205 | 1.0 | 4.0 | 0.00 | 0.02 | 0.02 | 92 | 985.9 |
| 20260503050524 | 56 | 207 | 2.0 | 5.0 | 0.00 | 0.02 | 0.02 | 92 | 985.8 |
| 20260503050028 | 56 | 206 | 2.0 | 5.0 | 0.00 | 0.02 | 0.02 | 92 | 985.7 |
| 20260503045526 | 56 | 200 | 2.0 | 5.0 | 0.00 | 0.02 | 0.02 | 92 | 985.5 |
| 20260503045025 | 56 | 200 | 3.0 | 5.0 | 0.00 | 0.02 | 0.02 | 92 | 985.5 |
| 20260503044523 | 57 | 197 | 2.0 | 5.0 | 0.00 | 0.02 | 0.02 | 91 | 985.4 |
| 20260503044023 | 57 | 194 | 2.0 | 3.0 | 0.00 | 0.02 | 0.02 | 91 | 985.4 |
| 20260503043523 | 57 | 194 | 0.0 | 3.0 | 0.00 | 0.02 | 0.02 | 91 | 985.3 |
| 20260503043023 | 57 | 194 | 0.0 | 3.0 | 0.00 | 0.02 | 0.02 | 90 | 985.1 |
| 20260503042524 | 57 | 194 | 1.0 | 3.0 | 0.00 | 0.02 | 0.02 | 90 | 985.1 |
| 20260503042023 | 57 | 194 | 0.0 | 0.0 | 0.00 | 0.02 | 0.02 | 90 | 985.0 |
| 20260503041523 | 58 | 194 | 0.0 | 0.0 | 0.00 | 0.02 | 0.02 | 89 | 984.9 |
| 20260503041022 | 58 | 194 | 0.0 | 0.0 | 0.00 | 0.02 | 0.02 | 89 | 985.0 |
| 20260503040522 | 58 | 194 | 0.0 | 0.0 | 0.00 | 0.02 | 0.02 | 89 | 985.0 |
| 20260503040029 | 58 | 194 | 0.0 | 0.0 | 0.00 | 0.02 | 0.02 | 88 | 984.9 |
| 20260503035522 | 58 | 194 | 0.0 | 0.0 | 0.00 | 0.02 | 0.02 | 88 | 984.8 |
| 20260503035022 | 59 | 194 | 0.0 | 0.0 | 0.00 | 0.02 | 0.02 | 88 | 984.7 |
| 20260503034522 | 59 | 194 | 0.0 | 3.0 | 0.00 | 0.02 | 0.02 | 88 | 984.8 |
| 20260503034021 | 59 | 194 | 0.0 | 3.0 | 0.00 | 0.02 | 0.02 | 88 | 984.7 |
| 20260503033521 | 59 | 194 | 0.0 | 0.0 | 0.00 | 0.02 | 0.02 | 87 | 984.7 |
| 20260503033022 | 59 | 194 | 0.0 | 0.0 | 0.00 | 0.02 | 0.02 | 87 | 984.6 |
| 20260503032521 | 59 | 194 | 0.0 | 0.0 | 0.00 | 0.02 | 0.02 | 87 | 984.5 |
| 20260503032021 | 60 | 194 | 0.0 | 4.0 | 0.00 | 0.02 | 0.02 | 87 | 984.6 |
| 20260503031521 | 60 | 194 | 2.0 | 4.0 | 0.00 | 0.02 | 0.02 | 86 | 984.5 |
| 20260503031022 | 60 | 191 | 1.0 | 4.0 | 0.00 | 0.02 | 0.02 | 85 | 984.3 |
| 20260503030520 | 61 | 191 | 1.0 | 4.0 | 0.00 | 0.02 | 0.02 | 85 | 984.4 |
| 20260503030020 | 61 | 191 | 1.0 | 4.0 | 0.00 | 0.02 | 0.02 | 84 | 984.3 |
| 20260503025520 | 62 | 191 | 1.0 | 4.0 | 0.00 | 0.02 | 0.02 | 84 | 984.1 |
| 20260503025020 | 62 | 191 | 1.0 | 5.0 | 0.00 | 0.02 | 0.02 | 83 | 984.2 |
| 20260503024520 | 63 | 190 | 2.0 | 5.0 | 0.00 | 0.02 | 0.02 | 82 | 984.1 |
| 20260503024021 | 63 | 182 | 0.0 | 3.0 | 0.00 | 0.02 | 0.02 | 82 | 984.1 |
| 20260503023520 | 64 | 182 | 0.0 | 4.0 | 0.00 | 0.02 | 0.02 | 81 | 984.0 |
| 20260503023020 | 64 | 182 | 2.0 | 4.0 | 0.00 | 0.02 | 0.02 | 81 | 983.9 |
| 20260503022523 | 65 | 178 | 0.0 | 2.0 | 0.00 | 0.02 | 0.02 | 80 | 983.9 |
| 20260503022019 | 65 | 178 | 0.0 | 4.0 | 0.00 | 0.02 | 0.02 | 79 | 983.9 |
| 20260503021520 | 65 | 178 | 2.0 | 4.0 | 0.00 | 0.02 | 0.02 | 78 | 983.7 |
| 20260503021019 | 66 | 178 | 2.0 | 4.0 | 0.00 | 0.02 | 0.02 | 77 | 983.7 |
| 20260503020520 | 66 | 178 | 2.0 | 3.0 | 0.00 | 0.02 | 0.02 | 76 | 983.7 |
| 20260503020019 | 67 | 178 | 1.0 | 3.0 | 0.00 | 0.02 | 0.02 | 76 | 983.7 |
| 20260503015521 | 67 | 178 | 1.0 | 3.0 | 0.00 | 0.02 | 0.02 | 77 | 983.7 |
| 20260503015017 | 67 | 178 | 1.0 | 3.0 | 0.00 | 0.02 | 0.02 | 77 | 983.8 |
| 20260503014517 | 67 | 178 | 1.0 | 6.0 | 0.00 | 0.02 | 0.02 | 77 | 983.7 |
| 20260503014017 | 67 | 180 | 3.0 | 6.0 | 0.00 | 0.02 | 0.02 | 77 | 983.8 |
| 20260503013517 | 67 | 204 | 3.0 | 8.0 | 0.00 | 0.02 | 0.02 | 77 | 983.8 |
| 20260503013017 | 68 | 229 | 2.0 | 9.0 | 0.00 | 0.02 | 0.02 | 76 | 983.8 |
| 20260503012517 | 68 | 198 | 3.0 | 5.0 | 0.00 | 0.02 | 0.02 | 76 | 983.8 |
| 20260503012016 | 68 | 205 | 1.0 | 5.0 | 0.00 | 0.02 | 0.02 | 77 | 983.8 |
| 20260503011527 | 68 | 204 | 1.0 | 4.0 | 0.00 | 0.02 | 0.02 | 77 | 983.8 |
| 20260503011020 | 68 | 204 | 2.0 | 4.0 | 0.00 | 0.02 | 0.02 | 76 | 983.8 |
| 20260503010515 | 68 | 204 | 0.0 | 5.0 | 0.00 | 0.02 | 0.02 | 76 | 983.9 |
| 20260503010015 | 68 | 204 | 3.0 | 5.0 | 0.00 | 0.02 | 0.02 | 76 | 983.8 |
| 20260503005515 | 68 | 204 | 3.0 | 6.0 | 0.00 | 0.02 | 0.02 | 76 | 983.9 |
| 20260503005016 | 68 | 206 | 2.0 | 6.0 | 0.00 | 0.02 | 0.02 | 76 | 984.0 |
| 20260503004514 | 68 | 186 | 3.0 | 7.0 | 0.00 | 0.02 | 0.02 | 75 | 984.0 |
| 20260503004013 | 69 | 177 | 4.0 | 7.0 | 0.00 | 0.02 | 0.02 | 74 | 983.9 |
| 20260503003513 | 69 | 190 | 3.0 | 7.0 | 0.00 | 0.02 | 0.02 | 74 | 984.0 |
| 20260503003015 | 69 | 183 | 3.0 | 7.0 | 0.00 | 0.02 | 0.02 | 75 | 984.0 |
| 20260503002513 | 69 | 192 | 2.0 | 7.0 | 0.00 | 0.02 | 0.02 | 74 | 984.0 |
| 20260503002016 | 69 | 175 | 4.0 | 8.0 | 0.00 | 0.02 | 0.02 | 74 | 983.9 |
| 20260503001513 | 69 | 196 | 4.0 | 8.0 | 0.00 | 0.02 | 0.02 | 74 | 983.9 |
| 20260503001011 | 70 | 205 | 4.0 | 7.0 | 0.00 | 0.02 | 0.02 | 73 | 984.1 |
| 20260503000514 | 70 | 186 | 3.0 | 7.0 | 0.00 | 0.02 | 0.02 | 74 | 984.1 |
| 20260503000011 | 70 | 200 | 4.0 | 9.0 | 0.00 | 0.02 | 0.02 | 73 | 984.1 |
| 20260502235511 | 70 | 208 | 5.0 | 9.0 | 0.00 | 0.02 | 0.02 | 73 | 984.2 |
| 20260502235011 | 70 | 180 | 5.0 | 10.0 | 0.00 | 0.02 | 0.02 | 73 | 984.1 |
| 20260502234528 | 70 | 192 | 4.0 | 7.0 | 0.00 | 0.02 | 0.02 | 73 | 984.2 |
| 20260502234011 | 70 | 163 | 4.0 | 8.0 | 0.00 | 0.02 | 0.02 | 73 | 984.2 |
| 20260502233510 | 70 | 190 | 4.0 | 8.0 | 0.00 | 0.02 | 0.02 | 74 | 984.2 |
| 20260502233010 | 70 | 179 | 4.0 | 6.0 | 0.00 | 0.02 | 0.02 | 74 | 984.2 |
| 20260502232510 | 70 | 180 | 3.0 | 6.0 | 0.00 | 0.02 | 0.02 | 74 | 984.3 |
| 20260502232008 | 70 | 182 | 4.0 | 8.0 | 0.00 | 0.02 | 0.02 | 73 | 984.4 |
| 20260502231508 | 70 | 173 | 2.0 | 8.0 | 0.00 | 0.02 | 0.02 | 74 | 984.5 |
| 20260502231007 | 70 | 167 | 3.0 | 8.0 | 0.00 | 0.02 | 0.02 | 73 | 984.6 |
| 20260502230508 | 70 | 188 | 4.0 | 7.0 | 0.00 | 0.02 | 0.02 | 74 | 984.6 |
| 20260502230007 | 70 | 178 | 3.0 | 8.0 | 0.00 | 0.02 | 0.02 | 74 | 984.8 |
| 20260502225508 | 70 | 190 | 2.0 | 7.0 | 0.00 | 0.02 | 0.02 | 75 | 984.9 |
| 20260502225005 | 69 | 192 | 4.0 | 7.0 | 0.00 | 0.02 | 0.02 | 75 | 985.0 |
| 20260502224504 | 69 | 172 | 4.0 | 7.0 | 0.00 | 0.02 | 0.02 | 75 | 985.0 |
| 20260502224005 | 69 | 230 | 4.0 | 7.0 | 0.00 | 0.02 | 0.02 | 75 | 985.1 |
| 20260502223503 | 68 | 217 | 3.0 | 9.0 | 0.00 | 0.02 | 0.02 | 77 | 985.3 |
| 20260502223002 | 68 | 191 | 5.0 | 9.0 | 0.00 | 0.02 | 0.02 | 76 | 985.4 |
| 20260502222502 | 68 | 217 | 6.0 | 9.0 | 0.00 | 0.02 | 0.02 | 75 | 985.5 |
| 20260502222001 | 68 | 146 | 5.0 | 10.0 | 0.00 | 0.02 | 0.02 | 77 | 985.5 |
| 20260502221500 | 68 | 202 | 6.0 | 10.0 | 0.00 | 0.02 | 0.02 | 76 | 985.6 |
| 20260502221100 | 68 | 176 | 5.0 | 10.0 | 0.00 | 0.02 | 0.02 | 76 | 985.7 |
| 20260502220601 | 67 | 212 | 4.0 | 13.0 | 0.00 | 0.02 | 0.02 | 77 | 985.7 |
| 20260502220143 | 68 | 188 | 6.0 | 13.0 | 0.00 | 0.02 | 0.02 | 76 | 985.9 |
| 20260502215559 | 68 | 196 | 5.0 | 10.0 | 0.00 | 0.02 | 0.02 | 75 | 985.9 |
| 20260502215058 | 68 | 233 | 6.0 | 11.0 | 0.00 | 0.02 | 0.02 | 76 | 985.9 |
| 20260502214559 | 68 | 205 | 6.0 | 11.0 | 0.00 | 0.02 | 0.02 | 75 | 986.1 |
| 20260502214056 | 68 | 163 | 5.0 | 11.0 | 0.00 | 0.02 | 0.02 | 75 | 986.1 |
| 20260502213556 | 68 | 184 | 7.0 | 14.0 | 0.00 | 0.02 | 0.02 | 75 | 986.2 |
| 20260502213103 | 68 | 167 | 6.0 | 13.0 | 0.00 | 0.02 | 0.02 | 74 | 986.2 |
| 20260502212556 | 69 | 189 | 5.0 | 12.0 | 0.00 | 0.02 | 0.02 | 74 | 986.3 |
| 20260502212058 | 69 | 197 | 6.0 | 12.0 | 0.00 | 0.02 | 0.02 | 74 | 986.3 |
| 20260502211555 | 70 | 219 | 6.0 | 10.0 | 0.00 | 0.02 | 0.02 | 73 | 986.3 |
| 20260502211055 | 70 | 214 | 6.0 | 9.0 | 0.00 | 0.02 | 0.02 | 73 | 986.3 |
| 20260502210554 | 70 | 250 | 4.0 | 10.0 | 0.00 | 0.02 | 0.02 | 73 | 986.4 |
| 20260502205554 | 71 | 181 | 5.0 | 10.0 | 0.00 | 0.02 | 0.02 | 72 | 986.4 |
| 20260502205053 | 70 | 163 | 6.0 | 10.0 | 0.00 | 0.02 | 0.02 | 73 | 986.5 |
| 20260502204605 | 70 | 171 | 6.0 | 10.0 | 0.00 | 0.02 | 0.02 | 72 | 986.5 |
| 20260502204052 | 70 | 161 | 5.0 | 10.0 | 0.00 | 0.02 | 0.02 | 74 | 986.5 |
| 20260502203552 | 70 | 181 | 6.0 | 10.0 | 0.00 | 0.02 | 0.02 | 73 | 986.5 |
| 20260502203103 | 70 | 204 | 7.0 | 10.0 | 0.00 | 0.02 | 0.02 | 73 | 986.5 |
| 20260502202552 | 70 | 159 | 6.0 | 10.0 | 0.00 | 0.02 | 0.02 | 72 | 986.5 |
| 20260502202054 | 70 | 142 | 6.0 | 11.0 | 0.00 | 0.02 | 0.02 | 73 | 986.6 |
| 20260502201551 | 70 | 168 | 6.0 | 11.0 | 0.00 | 0.02 | 0.02 | 73 | 986.6 |
| 20260502201051 | 70 | 200 | 5.0 | 10.0 | 0.00 | 0.02 | 0.02 | 74 | 986.6 |
| 20260502200551 | 70 | 180 | 6.0 | 10.0 | 0.00 | 0.02 | 0.02 | 74 | 986.7 |
| 20260502200051 | 70 | 174 | 7.0 | 11.0 | 0.00 | 0.02 | 0.02 | 73 | 986.8 |
| 20260502195550 | 70 | 172 | 5.0 | 11.0 | 0.00 | 0.02 | 0.02 | 72 | 987.0 |
| 20260502195050 | 70 | 190 | 5.0 | 10.0 | 0.00 | 0.02 | 0.02 | 73 | 987.1 |
| 20260502194554 | 70 | 189 | 5.0 | 10.0 | 0.00 | 0.02 | 0.02 | 72 | 987.1 |
| 20260502194051 | 70 | 198 | 4.0 | 9.0 | 0.00 | 0.02 | 0.02 | 73 | 987.2 |
| 20260502193551 | 70 | 198 | 5.0 | 9.0 | 0.00 | 0.02 | 0.02 | 74 | 987.2 |
| 20260502193050 | 70 | 130 | 5.0 | 9.0 | 0.00 | 0.02 | 0.02 | 72 | 987.2 |
| 20260502192552 | 70 | 213 | 5.0 | 9.0 | 0.00 | 0.02 | 0.02 | 74 | 987.3 |
| 20260502192049 | 69 | 210 | 3.0 | 9.0 | 0.00 | 0.02 | 0.02 | 74 | 987.3 |
| 20260502191551 | 69 | 176 | 5.0 | 9.0 | 0.00 | 0.02 | 0.02 | 73 | 987.4 |
| 20260502191052 | 70 | 224 | 5.0 | 10.0 | 0.00 | 0.02 | 0.02 | 71 | 987.4 |